CGYQB CYOO-CYKF

Flight info

Callsign CGYQB
Flight time N/A
Altitude 1800
Route CYOO/12 CIRCUITS
Aircraft C172

Departure

Time 2026-04-22 00:15
Airport Oshawa Executive Airport (CYOO)

Arrival

Time N/A
Airport Region of Waterloo International Airport (CYKF)
Time Latitude Longitude Altitude Speed Heading
2026-04-22 00:15 43.69574 -79.23962 1679 ft 109 kts 230°
2026-04-22 00:15 43.69173 -79.24850 1685 ft 109 kts 229°
2026-04-22 00:16 43.68673 -79.25619 1690 ft 107 kts 218°
2026-04-22 00:16 43.68125 -79.26325 1690 ft 107 kts 219°
2026-04-22 00:16 43.67578 -79.27027 1691 ft 108 kts 219°
2026-04-22 00:16 43.67027 -79.27733 1693 ft 108 kts 219°
2026-04-22 00:17 43.66480 -79.28443 1692 ft 108 kts 218°
2026-04-22 00:17 43.65932 -79.29161 1690 ft 109 kts 219°
2026-04-22 00:17 43.65378 -79.29881 1691 ft 109 kts 219°
2026-04-22 00:17 43.64823 -79.30589 1693 ft 108 kts 219°
2026-04-22 00:18 43.64485 -79.31532 1687 ft 114 kts 249°
2026-04-22 00:18 43.64277 -79.32597 1687 ft 116 kts 248°
2026-04-22 00:18 43.64065 -79.33690 1610 ft 119 kts 249°
2026-04-22 00:18 43.63845 -79.34775 1609 ft 115 kts 246°
2026-04-22 00:19 43.63318 -79.35511 1608 ft 108 kts 212°
2026-04-22 00:19 43.62719 -79.36140 1548 ft 115 kts 216°
2026-04-22 00:19 43.62234 -79.37080 1328 ft 126 kts 243°
2026-04-22 00:19 43.61958 -79.38224 1125 ft 122 kts 252°
2026-04-22 00:20 43.61799 -79.39340 1071 ft 119 kts 259°
2026-04-22 00:20 43.61675 -79.40444 1246 ft 113 kts 255°
2026-04-22 00:20 43.61665 -79.41452 1229 ft 99 kts 298°
2026-04-22 00:20 43.62202 -79.41719 928 ft 73 kts 40°
2026-04-22 00:21 43.62546 -79.41200 437 ft 71 kts 83°
2026-04-22 00:21 43.62669 -79.40644 349 ft 54 kts 70°
2026-04-22 00:21 43.62783 -79.40181 264 ft 50 kts 66°
2026-04-22 00:21 43.62877 -79.39813 255 ft 46 kts 73°